{"data":{"norad_id":56395,"epoch":"2026-05-25T05:12:01.698048Z","epoch_age_seconds":56622,"freshness":"FRESH","line1":"1 56395U 23061X   26145.21668632 -.00001174  00000+0 -33144-4 0  9995","line2":"2 56395  43.0011 115.2648 0001239 270.7177  89.3533 15.27584100169282","mean_motion":15.275841,"eccentricity":0.0001239,"inclination_deg":43.0011,"raan_deg":115.2648,"arg_perigee_deg":270.7177,"mean_anomaly_deg":89.3533,"bstar":-3.3144e-5,"rev_number":16928,"period_min":94.266495703903,"perigee_km":482.18671975595,"apogee_km":483.88691862834,"semimajor_km":6861.1738191921,"source":"CELESTRAK","updated_at":"2026-05-25T13:38:18.014522Z"}}